CW5766 Waverley NS CA current weather conditions

sailwx.info

Wind from 023 at 4 knots gusting 14

Air temperature 12.2° C
Dewpoint 10.0° C

Last reported at 2019-Oct-23 16:03 UTC.
Time now 2019-Oct-23 16:27 UTC

Location: N 44°46' W 063°35'.
View on Google Maps.

See reports from other nearby stations

  
Tides and Currents Weather Stations Pressure Air Temp Water Temp Dewpoint Dewpoint Depression Visibility Wind Speed Wind Dir Waves Ship Positions
date/time (UTC)wind fromknots sea level pressurealtimeterstation pressurevisibilityair tempwater tempwave heightnotes
2019-Oct-23 16:03 023 4 gusting 14 12.2
2019-Oct-23 15:58 072 6 gusting 15 12.2
2019-Oct-23 15:53 336 3 gusting 19 12.2
2019-Oct-23 15:48 155 3 gusting 19 12.2
2019-Oct-23 15:43 164 4 gusting 13 12.2
2019-Oct-23 15:38 223 5 gusting 12 12.2
2019-Oct-23 15:33 185 6 gusting 14 12.2
2019-Oct-23 15:28 120 6 gusting 14 12.2
2019-Oct-23 15:23 152 7 gusting 18 12.2
2019-Oct-23 15:18 154 6 gusting 18 12.2
2019-Oct-23 15:13 140 5 gusting 17 12.2
2019-Oct-23 15:08 073 6 gusting 13 12.2
2019-Oct-23 15:03 058 4 gusting 13 12.2
2019-Oct-23 14:58 223 1 gusting 11 12.2
2019-Oct-23 14:53 031 5 gusting 17 12.2
2019-Oct-23 14:48 162 2 gusting 17 12.2
2019-Oct-23 14:43 097 4 gusting 11 12.2
2019-Oct-23 14:38 017 3 gusting 15 12.2
2019-Oct-23 14:33 079 5 gusting 15 12.2
2019-Oct-23 14:28 144 5 gusting 13 12.2
2019-Oct-23 14:23 055 5 gusting 13 11.7
2019-Oct-23 14:18 031 6 gusting 13 11.7
2019-Oct-23 14:13 100 5 gusting 12 11.7
2019-Oct-23 14:08 133 4 gusting 12 11.7
2019-Oct-23 14:03 346 2 gusting 12 11.7
2019-Oct-23 13:58 106 5 gusting 11 11.7
2019-Oct-23 13:53 085 3 gusting 13 11.7
2019-Oct-23 13:48 137 3 gusting 13 11.7
2019-Oct-23 13:43 092 3 gusting 12 11.7
2019-Oct-23 13:38 059 3 gusting 13 11.7
2019-Oct-23 13:33 055 5 gusting 13 11.7
2019-Oct-23 13:28 258 5 gusting 13 11.7
2019-Oct-23 13:23 360 1 gusting 13 11.1
2019-Oct-23 13:18 071 4 gusting 13 11.1
2019-Oct-23 13:13 322 2 gusting 12 11.1
2019-Oct-23 13:08 192 5 gusting 12 11.1
2019-Oct-23 13:03 148 1 gusting 13 11.1
2019-Oct-23 12:58 044 2 gusting 13 11.1
2019-Oct-23 12:53 059 6 gusting 13 11.1
2019-Oct-23 12:48 062 4 gusting 13 11.1
2019-Oct-23 12:43 119 6 gusting 17 11.1
2019-Oct-23 12:38 030 6 gusting 17 11.1
2019-Oct-23 12:33 254 6 gusting 17 11.1
2019-Oct-23 12:28 145 1 gusting 9 10.6
2019-Oct-23 12:23 120 2 gusting 13 10.6
2019-Oct-23 12:18 047 6 gusting 13 10.6
2019-Oct-23 12:13 181 6 gusting 12 10.6
2019-Oct-23 12:08 222 1 gusting 15 10.6
2019-Oct-23 12:03 148 6 gusting 15 10.6
2019-Oct-23 11:58 357 2 gusting 15 10.6
2019-Oct-23 11:53 147 2 gusting 6 10.6
2019-Oct-23 02:23 152 0 gusting 8 8.9
2019-Oct-23 02:18 124 1 gusting 8 8.9
2019-Oct-23 02:13 047 0 gusting 5 8.9
2019-Oct-23 02:08 124 8.3
2019-Oct-23 02:03 116 0 gusting 5 8.3
2019-Oct-23 01:58 054 8.3
2019-Oct-23 01:53 131 8.3
2019-Oct-23 01:48 161 1 gusting 5 8.3
2019-Oct-23 01:43 128 1 gusting 5 8.3
2019-Oct-23 01:38 130 0 gusting 3 8.3
2019-Oct-23 01:33 188 0 gusting 3 8.3
2019-Oct-23 01:28 196 8.3
2019-Oct-23 01:23 107 1 gusting 6 8.9
2019-Oct-23 01:18 069 1 gusting 6 8.9
2019-Oct-23 01:13 064 8.9
2019-Oct-23 01:08 064 0 gusting 3 8.9
2019-Oct-23 01:03 051 8.9
2019-Oct-23 00:58 140 8.9
2019-Oct-23 00:53 140 8.9
2019-Oct-23 00:48 095 8.9
2019-Oct-23 00:43 096 8.9
2019-Oct-23 00:38 127 8.9
2019-Oct-23 00:33 107 0 gusting 3 8.9
2019-Oct-23 00:28 103 8.9
2019-Oct-23 00:23 103 8.9
2019-Oct-23 00:18 112 8.9
2019-Oct-23 00:13 112 0 gusting 3 8.9
2019-Oct-23 00:08 127 0 gusting 3 8.9
2019-Oct-23 00:03 127 8.9
2019-Oct-22 23:58 124 8.9
2019-Oct-22 23:53 124 0 gusting 3 8.9
2019-Oct-22 23:48 126 0 gusting 3 8.9
2019-Oct-22 23:43 102 8.9
2019-Oct-22 23:38 095 8.9
2019-Oct-22 23:33 095 8.9
2019-Oct-22 23:28 095 8.9
2019-Oct-22 23:23 066 8.9
2019-Oct-22 23:18 117 8.9
2019-Oct-22 23:13 117 8.9
2019-Oct-22 23:08 117 8.9
2019-Oct-22 23:03 103 8.9
2019-Oct-22 22:58 088 8.9
2019-Oct-22 22:53 089 8.9
2019-Oct-22 22:48 088 1 gusting 5 9.4
2019-Oct-22 22:43 048 9.4
2019-Oct-22 22:38 048 9.4
2019-Oct-22 22:33 048 9.4
2019-Oct-22 22:28 048 9.4
2019-Oct-22 22:23 048 9.4
2019-Oct-22 22:18 045 9.4
2019-Oct-22 22:13 045 9.4
2019-Oct-22 22:08 045 9.4
2019-Oct-22 22:03 045 10.0
2019-Oct-22 21:58 045 10.0
2019-Oct-22 21:53 104 0 gusting 5 10.0
2019-Oct-22 21:48 095 10.0
2019-Oct-22 21:43 093 10.0
2019-Oct-22 21:38 095 10.0
2019-Oct-22 21:33 096 10.6
2019-Oct-22 21:28 096 10.6
2019-Oct-22 21:23 096 10.6
2019-Oct-22 21:18 093 0 gusting 5 10.6
2019-Oct-22 21:13 095 2 gusting 5 10.6
2019-Oct-22 21:08 127 0 gusting 5 10.6
2019-Oct-22 21:03 130 10.6
2019-Oct-22 20:58 151 11.1
2019-Oct-22 20:53 113 11.1
2019-Oct-22 20:48 110 11.1
2019-Oct-22 20:43 112 11.1
2019-Oct-22 20:38 112 11.1
2019-Oct-22 20:33 112 0 gusting 6 11.7
2019-Oct-22 20:28 071 11.7
2019-Oct-22 20:23 058 0 gusting 6 11.7
2019-Oct-22 20:18 134 0 gusting 6 11.7
2019-Oct-22 20:13 137 1 gusting 6 11.7
2019-Oct-22 20:08 042 1 gusting 7 12.2
2019-Oct-22 20:03 127 1 gusting 7 12.2
2019-Oct-22 19:58 148 2 gusting 6 12.2
2019-Oct-22 19:53 120 0 gusting 6 12.2
2019-Oct-22 19:48 113 12.8
2019-Oct-22 19:43 157 3 gusting 8 12.8
2019-Oct-22 19:38 158 0 gusting 8 12.8
2019-Oct-22 19:33 160 1 gusting 7 12.8
2019-Oct-22 19:28 136 1 gusting 7 13.3
2019-Oct-22 19:23 034 3 gusting 7 13.3
2019-Oct-22 19:18 052 4 gusting 7 13.3
2019-Oct-22 19:13 130 1 gusting 6 13.3
2019-Oct-22 19:08 161 1 gusting 7 13.3
2019-Oct-22 19:03 114 2 gusting 7 13.3
2019-Oct-22 18:58 138 4 gusting 7 13.9
2019-Oct-22 18:53 096 1 gusting 8 13.9
2019-Oct-22 18:48 161 1 gusting 8 13.9
2019-Oct-22 18:43 127 2 gusting 7 13.9
2019-Oct-22 18:38 157 2 gusting 7 13.9
2019-Oct-22 18:33 151 2 gusting 6 13.9
2019-Oct-22 18:28 076 1 gusting 6 13.9
2019-Oct-22 18:23 068 1 gusting 6 13.9
2019-Oct-22 18:18 106 1 gusting 6 14.4
2019-Oct-22 18:13 128 14.4
2019-Oct-22 18:08 130 0 gusting 3 14.4
2019-Oct-22 18:03 110 0 gusting 6 15.0
2019-Oct-22 17:58 093 1 gusting 6 15.0
2019-Oct-22 17:53 151 1 gusting 6 15.0
2019-Oct-22 17:48 138 2 gusting 6 15.6
2019-Oct-22 17:43 055 0 gusting 6 15.6
2019-Oct-22 17:38 155 3 gusting 7 15.6
2019-Oct-22 17:33 200 3 gusting 7 15.6
2019-Oct-22 17:28 080 1 gusting 6 15.6
2019-Oct-22 17:23 144 0 gusting 6 15.6
2019-Oct-22 17:18 165 0 gusting 5 15.6
2019-Oct-22 17:13 359 15.6
2019-Oct-22 17:08 147 0 gusting 8 15.0
2019-Oct-22 17:03 082 15.0
2019-Oct-22 16:58 097 0 gusting 6 15.0
2019-Oct-22 16:53 136 2 gusting 6 15.0
2019-Oct-22 16:48 062 2 gusting 6 15.0
2019-Oct-22 16:43 037 0 gusting 6 15.0
2019-Oct-22 16:38 080 14.4
2019-Oct-22 16:33 061 1 gusting 5 14.4
2019-Oct-22 16:28 049 0 gusting 5 14.4
2019-Oct-22 16:23 093 0 gusting 6 14.4
2019-Oct-22 16:18 138 0 gusting 8 14.4
2019-Oct-22 16:13 145 1 gusting 8 14.4
2019-Oct-22 16:08 027 2 gusting 6 14.4
2019-Oct-22 16:03 071 0 gusting 6 14.4
2019-Oct-22 15:58 066 1 gusting 6 14.4
2019-Oct-22 15:53 127 1 gusting 7 14.4
2019-Oct-22 15:48 147 1 gusting 7 13.9
2019-Oct-22 15:43 315 0 gusting 5 13.9
2019-Oct-22 15:38 058 0 gusting 5 13.9
2019-Oct-22 15:33 114 0 gusting 5 13.9
2019-Oct-22 15:28 130 1 gusting 5 13.9
2019-Oct-22 15:23 112 0 gusting 3 13.9
2019-Oct-22 15:18 100 0 gusting 6 13.3
2019-Oct-22 15:13 106 1 gusting 6 13.3
2019-Oct-22 15:08 360 13.3
2019-Oct-22 15:03 121 12.8
2019-Oct-22 14:58 356 0 gusting 6 12.8
2019-Oct-22 14:53 206 1 gusting 5 12.8
2019-Oct-22 14:48 121 1 gusting 5 12.8
2019-Oct-22 14:43 184 12.2
2019-Oct-22 14:38 169 0 gusting 11 12.2
2019-Oct-22 14:33 071 3 gusting 11 12.2
2019-Oct-22 14:28 116 11.7
2019-Oct-22 14:23 030 11.7
2019-Oct-22 14:18 066 0 gusting 5 11.1
2019-Oct-22 14:13 001 0 gusting 5 11.1
2019-Oct-22 14:08 359 1 gusting 5 11.1
2019-Oct-22 14:03 222 0 gusting 6 10.6
2019-Oct-22 13:58 107 10.6
2019-Oct-22 13:53 008 0 gusting 3 10.0
2019-Oct-22 13:48 037 10.0
2019-Oct-22 13:43 037 9.4
2019-Oct-22 13:38 360 0 gusting 6 9.4
2019-Oct-22 13:33 068 9.4
2019-Oct-22 13:28 336 0 gusting 8 8.9
2019-Oct-22 13:23 066 0 gusting 6 8.9
2019-Oct-22 13:18 165 8.9
2019-Oct-22 13:13 071 2 gusting 6 8.3
2019-Oct-22 13:08 141 7.8
2019-Oct-22 13:03 127 7.8
2019-Oct-22 12:58 203 7.2
2019-Oct-22 12:53 154 0 gusting 3 6.7
2019-Oct-22 12:48 154 6.7
2019-Oct-22 12:43 154 6.7
2019-Oct-22 12:38 154 6.1
2019-Oct-22 12:33 152 6.1
2019-Oct-22 12:28 154 5.6
2019-Oct-22 12:23 154 5.6
2019-Oct-22 12:18 154 5.6
2019-Oct-22 12:13 154 5.0
2019-Oct-22 12:08 151 5.0
2019-Oct-22 02:23 154 4.4
2019-Oct-22 02:18 154 4.4
2019-Oct-22 02:13 154 5.0
2019-Oct-22 02:08 154 5.0
2019-Oct-22 02:03 154 5.0
2019-Oct-22 01:58 154 5.0
2019-Oct-22 01:53 154 5.0
2019-Oct-22 01:48 154 5.0
2019-Oct-22 01:43 154 5.0
2019-Oct-22 01:38 154 5.0
2019-Oct-22 01:33 154 5.0
2019-Oct-22 01:28 154 5.0
2019-Oct-22 01:23 154 5.0
2019-Oct-22 01:18 154 5.6
2019-Oct-22 01:13 154 5.6
2019-Oct-22 01:08 154 5.6
2019-Oct-22 01:03 154 5.6
2019-Oct-22 00:58 154 5.6
2019-Oct-22 00:53 154 5.6
2019-Oct-22 00:48 154 5.6
2019-Oct-22 00:43 154 5.6
2019-Oct-22 00:38 154 6.1
2019-Oct-22 00:33 154 6.1
2019-Oct-22 00:28 154 6.1
2019-Oct-22 00:23 154 6.1
2019-Oct-22 00:18 154 6.1
2019-Oct-22 00:13 154 1 gusting 1 6.7
2019-Oct-22 00:08 154 6.7
2019-Oct-22 00:03 154 6.7
2019-Oct-21 23:58 154 7.2
2019-Oct-21 23:53 154 0 gusting 1 7.2
2019-Oct-21 23:48 154 7.2
2019-Oct-21 23:43 154 7.2
2019-Oct-21 23:38 154 7.8
2019-Oct-21 23:33 154 7.8
2019-Oct-21 23:28 154 8.3
2019-Oct-21 23:23 155 8.3
2019-Oct-21 23:18 154 8.9
2019-Oct-21 23:13 154 8.9
2019-Oct-21 23:08 154 9.4
2019-Oct-21 23:03 154 9.4
2019-Oct-21 22:58 154 9.4
2019-Oct-21 22:53 154 10.0
2019-Oct-21 22:48 154 10.0
2019-Oct-21 22:43 154 10.0
2019-Oct-21 22:38 154 10.6
2019-Oct-21 22:33 154 10.6
2019-Oct-21 22:28 154 10.6
2019-Oct-21 22:23 154 11.1
2019-Oct-21 22:18 154 11.1
2019-Oct-21 22:13 155 11.1
2019-Oct-21 22:08 154 11.7
2019-Oct-21 22:03 154 0 gusting 1 11.7
2019-Oct-21 21:58 154 11.7
2019-Oct-21 21:53 154 12.2
2019-Oct-21 21:48 154 12.2
2019-Oct-21 21:43 154 12.2
2019-Oct-21 21:38 154 12.2
2019-Oct-21 21:33 155 12.2
2019-Oct-21 21:28 155 12.8
2019-Oct-21 21:23 155 12.8
2019-Oct-21 21:18 154 12.8
2019-Oct-21 21:13 155 13.3
2019-Oct-21 21:08 155 13.3
2019-Oct-21 21:03 152 13.3
2019-Oct-21 20:58 152 13.3
2019-Oct-21 20:53 152 13.9
2019-Oct-21 20:48 154 13.9
2019-Oct-21 20:43 152 13.9
2019-Oct-21 20:38 165 0 gusting 6 13.9
2019-Oct-21 20:33 176 3 gusting 6 13.9
2019-Oct-21 20:28 154 13.9
2019-Oct-21 20:23 240 1 gusting 6 14.4
2019-Oct-21 20:18 155 0 gusting 6 14.4
2019-Oct-21 20:13 155 0 gusting 6 14.4
2019-Oct-21 20:08 219 0 gusting 5 14.4
2019-Oct-21 20:03 219 0 gusting 5 15.0
2019-Oct-21 19:58 220 15.0
2019-Oct-21 19:53 205 15.0
2019-Oct-21 19:48 244 15.0
2019-Oct-21 19:43 244 1 gusting 6 15.0
2019-Oct-21 19:38 239 0 gusting 5 15.0
2019-Oct-21 19:33 243 2 gusting 5 15.0
2019-Oct-21 19:28 147 0 gusting 6 15.6
2019-Oct-21 19:23 185 1 gusting 6 15.6
2019-Oct-21 19:18 234 1 gusting 6 15.6
2019-Oct-21 19:13 059 1 gusting 6 15.6
2019-Oct-21 19:08 240 1 gusting 6 15.6
2019-Oct-21 19:03 246 1 gusting 6 15.6
2019-Oct-21 18:58 236 3 gusting 6 15.6
2019-Oct-21 18:53 254 2 gusting 6 15.6
2019-Oct-21 18:48 219 0 gusting 6 16.1
2019-Oct-21 18:43 254 2 gusting 6 16.1
2019-Oct-21 18:38 213 0 gusting 6 16.1
2019-Oct-21 18:33 196 0 gusting 6 16.1
2019-Oct-21 18:28 227 1 gusting 6 16.1
2019-Oct-21 18:23 254 3 gusting 6 16.1
2019-Oct-21 18:18 263 0 gusting 7 16.1
2019-Oct-21 18:13 241 3 gusting 7 16.1
2019-Oct-21 18:08 248 3 gusting 7 16.1
2019-Oct-21 18:03 232 3 gusting 6 16.1
2019-Oct-21 17:58 176 16.1
2019-Oct-21 17:53 227 0 gusting 8 15.6
2019-Oct-21 17:48 229 0 gusting 8 15.6
2019-Oct-21 17:18 219 0 gusting 5 15.0
2019-Oct-21 17:13 222 0 gusting 3 15.0
2019-Oct-21 17:08 223 1 gusting 6 15.0
2019-Oct-21 17:03 222 2 gusting 6 15.0
2019-Oct-21 16:58 196 0 gusting 3 14.4
2019-Oct-21 16:53 215 15.0
2019-Oct-21 16:48 215 0 gusting 5 14.4
2019-Oct-21 16:43 215 14.4
2019-Oct-21 16:38 244 14.4
2019-Oct-21 16:33 244 1 gusting 6 14.4
2019-Oct-21 16:28 246 1 gusting 6 14.4
2019-Oct-21 16:23 246 1 gusting 6 13.9
2019-Oct-21 16:18 160 0 gusting 6 13.9
2019-Oct-21 16:13 257 2 gusting 6 13.9
2019-Oct-21 16:08 154 13.9
2019-Oct-21 16:03 248 13.3